User: anonymous   Login
Location: Larrial
(48.2758°N, 4.5331°W)
Time: 18:11:51
(UTC+00:00)
Language:

CAS-4A - Orbit

View from above orbital plane
View from above orbital plane
View from above satellite
View from above satellite

Ground track
Ground track

The orbit data is extracted from the following two-line orbital elements,

1 42761U 17034D   21340.20564382  .00001392  00000-0  95774-4 0  9996
2 42761  43.0185 315.5447 0007397 165.1747 209.5875 15.10683466247121
Epoch (UTC): 06 December 2021 04:56:07
Eccentricity: 0.0007397
inclination: 43.0185°
perigee height: 529 km
apogee height: 539 km
right ascension of ascending node: 315.5447°
argument of perigee: 165.1747°
revolutions per day: 15.10683466
mean anomaly at epoch: 209.5875°
orbit number at epoch: 24712

The dashed part of the orbit path shows where the satellite is in the earth's shadow,  

DLR